Regional Weather Roundup
Issued by NWS Sioux Falls, SD

Home | Current Version | Previous Version | Graphics & Text | Print | Product List | Glossary On
Versions: 1 2 3 4 5 6 7 8 9 10 11 12 13 14 15 16 17 18 19 20 21 22 23 24 25 26 27 28 29 30 31 32 33 34 35 36 37 38 39 40 41 42 43 44 45 46 47 48 49 50
000
ASUS43 KFSD 191010
RWRFSD

WEATHER ROUNDUP FOR SE SOUTH DAKOTA/SW MINNESOTA/NW IOWA
NATIONAL WEATHER SERVICE SIOUX FALLS SD
500 AM CDT FRI SEP 19 2014

NOTE: "FAIR" INDICATES FEW OR NO CLOUDS BELOW 12,000 FEET WITH NO
SIGNIFICANT WEATHER AND OR OBSTRUCTIONS TO VISIBILITY.


SDZ038>040-050-052>070-191100-
SOUTHEAST SOUTH DAKOTA

CITY           SKY/WX    TMP DP  RH WIND       PRES   REMARKS
CHAMBERLAIN    MOCLDY    64  62  94 SE6       29.74R
HURON          CLOUDY    62  57  83 S13       29.77R
MADISON        CLOUDY    59  59 100 S16G23    29.84S
MITCHELL       CLOUDY    62  60  93 SE16      29.78F
SIOUX FALLS    CLOUDY    63  58  83 S17G23    29.85S
WINNER         FAIR      68  63  84 S18G31    29.70S
YANKTON        CLOUDY    63  61  94 S13       29.83S
$$

MNZ071-072-080-081-089-090-097-098-191100-
SOUTHWEST MINNESOTA

CITY           SKY/WX    TMP DP  RH WIND       PRES   REMARKS
FAIRMONT       MOCLDY    57  46  67 S13       29.93F
JACKSON        CLOUDY    61  54  77 S17G26    29.91F
LUVERNE        CLOUDY    63  55  77 S14G23    29.89R
MARSHALL       PTCLDY    63  54  72 S16G23    29.85R
MONTEVIDEO     MOCLDY    63  55  77 SW8       29.84F
PIPESTONE      CLOUDY    61  55  82 SW20      29.87R
REDWOOD FALLS  CLOUDY    62  56  80 S10       29.88R
TRACY          CLEAR     62  58  86 S17G32    29.86R
WINDOM         MOCLDY    63  55  77 S20G30    29.88F
WORTHINGTON    CLOUDY    59  55  88 S17G24    29.89F
$$

IAZ001>003-012>014-020>022-031-032-NEZ013-014-SDZ071-191100-
NORTHWEST IOWA

CITY           SKY/WX    TMP DP  RH WIND       PRES   REMARKS
CHEROKEE       CLOUDY    60  59  97 S12G17    29.92S
DENISON        CLOUDY    61  61 100 S12G22    29.93F
ESTHERVILLE    PTCLDY    57  55  93 S13       29.93F
LE MARS          N/A     63  59  88 S18       29.89F
ORANGE CITY    CLOUDY    63  57  82 S15G21    29.89S HAZE
SHELDON        CLOUDY    59  59 100 S13G22    29.88F
SIOUX CITY     CLOUDY    61  59  93 S8        29.89F
SPENCER        CLOUDY    59  56  89 S13       29.92F
STORM LAKE     CLOUDY    59  59 100 S12       29.94S FOG
$$

ABBREVIATIONS USED IN REMARKS
   TC - TEMPERATURE IN CELSIUS
  WCI - WIND CHILL INDEX
   HX - HEAT INDEX
  VSB - VISIBILITY




USA.gov is the U.S. government's official web portal to all federal, state and local government web resources and services.